User: anonymous   Login
Location: Caltech
(34.1382°N, 118.1253°W)
Time: 03:39:23
(UTC-07:00)
Language:

Iridium 91 - Orbit

View from above orbital plane
View from above orbital plane
View from above satellite
View from above satellite

Ground track
Ground track

The orbit data is extracted from the following two-line orbital elements,

1 27372U 02005A   16205.55209492  .00000104  00000-0  29991-4 0  9997
2 27372  86.3955  65.2045 0001993  89.5267 295.0448 14.34221307764523
Epoch (UTC): 23 July 2016 13:15:01
Eccentricity: 0.0001993
inclination: 86.3955°
perigee height: 776 km
apogee height: 779 km
right ascension of ascending node: 65.2045°
argument of perigee: 89.5267°
revolutions per day: 14.34221307
mean anomaly at epoch: 295.0448°
orbit number at epoch: 76452

The dashed part of the orbit path shows where the satellite is in the earth's shadow,  

DLR